Location: Sternwarte_Laufen
(47.9344°N, 12.9346°E)
Time: 06:21:12
(UTC+02:00)

ISS - Pass Details

Date: 20 July 2018
Orbit: 402 x 408 km, 51.6° (Epoch: 23 July)

Event Time Altitude Azimuth Distance (km) Brightness Sun altitude
Rises 02:14:01 0° 287° (WNW) 2,330 0.1 -20.1°
Reaches altitude 10° 02:16:09 10° 294° (WNW) 1,470 -0.9 -20.0°
Maximum altitude 02:19:20 45° 8° (N) 565 -2.7 -19.8°
Drops below altitude 10° 02:22:32 10° 84° (E) 1,471 -0.7 -19.7°
Sets 02:24:40 0° 90° (E) 2,331 0.3 -19.6°
